Theta_e
329 336 349 351 350 349 349 348 349 348 348 348 349 349 348 348 348 346 346 347 348 349 348 347 348 347 346 346 345 343 341 339 340 342 342 344 350 352 351 350 350 349 351
330 336 347 350 350 350 350 351 350 348 348 348 349 346 345 347 347 347 346 348 348 348 347 346 345 343 341 340 340 340 337 336 334 336 338 339 345 350 349 350 350 348 350
329 337 346 348 350 351 351 350 349 348 348 349 347 346 345 345 344 343 344 345 347 345 344 341 337 337 336 336 334 332 330 328 325 324 326 329 338 346 349 349 348 345 345
331 338 344 345 349 350 351 350 349 348 349 347 347 346 345 343 342 339 339 340 343 341 339 335 332 330 329 329 327 327 326 322 320 317 318 322 326 341 344 347 345 344 344
331 337 339 345 349 350 350 350 350 349 349 347 346 343 340 339 338 336 336 337 337 337 333 330 327 326 325 325 324 322 319 318 316 315 319 326 331 340 345 346 345 344 344
330 333 337 344 347 347 349 349 348 349 348 344 342 339 339 338 335 333 333 335 333 331 329 325 324 324 324 323 321 318 316 314 311 313 318 324 331 337 341 341 341 345 344
328 331 335 342 344 345 345 347 346 347 343 342 338 338 338 335 333 330 329 329 328 326 323 323 323 323 320 320 319 316 314 311 307 310 314 320 330 335 335 336 336 338 341
326 327 331 335 339 342 340 343 344 344 343 340 338 336 335 333 329 327 326 325 324 323 322 322 321 319 319 317 316 314 310 306 304 307 311 317 325 329 330 331 332 333 334
323 324 328 333 335 334 336 338 340 341 340 339 336 335 333 329 326 324 323 323 323 322 321 319 318 318 317 315 313 310 308 305 302 306 309 315 321 325 326 327 328 329 329
319 322 324 328 329 333 335 331 334 336 337 337 335 332 327 326 325 324 324 323 322 322 319 317 316 316 314 312 309 306 304 302 300 303 307 312 317 320 322 323 324 326 326
315 318 320 323 325 326 328 328 329 331 331 330 328 324 321 318 318 318 317 323 321 319 316 315 314 312 310 308 306 303 299 298 298 300 305 309 314 318 319 320 321 322 323
314 315 316 319 321 321 320 324 326 327 327 324 321 318 312 311 311 310 313 320 320 317 314 312 309 304 298 297 298 297 296 296 297 298 302 307 311 314 316 318 319 320 322
315 315 315 316 318 317 318 318 319 321 320 317 315 310 307 306 308 308 310 309 309 307 305 304 299 297 297 296 295 295 295 296 296 296 300 306 311 313 316 317 319 320 320
310 313 315 314 314 314 315 315 316 316 314 313 311 307 304 302 304 304 304 303 302 300 298 296 296 296 295 294 294 294 294 295 295 296 298 303 308 312 315 317 318 319 319
307 311 312 313 314 313 311 313 313 313 312 311 307 304 302 300 301 301 300 297 297 295 295 294 294 294 294 293 293 293 293 294 294 295 297 303 307 311 315 316 315 318 319
306 307 311 311 313 313 312 311 312 312 311 307 306 304 300 299 300 299 296 294 294 294 293 294 293 293 293 293 292 292 292 293 293 295 296 300 305 308 312 314 314 315 315
302 305 308 310 312 311 311 310 310 310 306 306 304 302 299 298 297 297 295 293 293 293 293 292 291 291 291 291 291 291 292 293 293 294 295 296 301 308 310 312 312 315 316
301 300 303 308 309 310 310 310 309 307 306 306 303 301 299 297 296 295 294 293 292 291 292 291 291 290 290 291 290 290 291 292 293 292 293 294 295 295 299 302 307 309 309
300 300 299 304 307 308 309 309 308 305 305 304 301 299 298 296 295 295 294 292 291 291 290 290 289 290 289 289 289 290 291 292 291 291 291 292 292 292 292 297 300 302 304
299 299 299 299 304 306 307 306 304 300 303 301 299 298 296 296 294 294 293 292 291 290 289 289 289 288 289 289 287 288 290 290 290 291 290 290 291 291 292 292 294 296 301
297 296 296 295 299 302 302 299 297 297 299 297 298 297 296 296 294 294 293 291 290 290 289 289 288 288 287 288 288 288 289 289 289 290 290 289 289 290 290 291 292 293 296
297 295 295 295 296 299 301 301 299 300 298 298 297 295 296 295 294 293 292 290 289 289 288 288 288 287 287 287 289 288 286 287 288 289 289 288 288 289 289 289 290 291 293
296 295 294 294 294 297 298 297 290 291 290 291 291 292 292 293 292 293 292 291 289 289 288 287 288 289 287 286 286 290 285 287 286 287 287 288 287 288 288 288 289 290 292
295 295 294 294 293 295 296 295 295 294 293 293 295 294 292 292 292 292 291 290 289 289 288 287 287 288 288 286 286 285 286 287 286 284 285 286 287 286 287 287 288 289 292
292 292 293 292 292 294 294 295 294 294 295 292 293 292 291 290 291 290 290 289 288 288 288 287 286 286 287 287 287 285 284 284 284 285 284 284 285 286 286 287 288 290 290
291 289 290 290 290 291 293 293 293 293 291 290 290 290 289 288 288 288 288 288 288 288 287 286 287 287 286 286 286 286 285 284 283 284 283 283 283 284 285 286 287 289 287
Wind_Speed
7 10 13 15 16 14 13 11 8 6 5 6 7 10 10 8 8 7 5 5 6 11 12 11 12 13 14 14 14 14 12 12 13 13 13 14 15 11 10 8 6 8 8
8 11 11 14 15 15 13 11 9 8 6 7 8 7 8 9 10 10 9 7 10 11 13 11 12 13 10 11 10 12 12 12 13 13 12 12 13 12 12 11 12 12 13
12 11 11 12 14 13 12 11 10 10 9 10 9 8 8 9 8 7 9 8 12 11 12 11 7 7 9 9 11 11 11 11 11 11 10 7 7 13 11 9 10 12 12
12 12 10 12 13 12 11 12 12 11 12 10 10 10 10 8 8 6 6 5 9 10 9 7 6 8 8 9 10 10 10 10 10 10 6 6 6 9 9 11 9 10 10
10 10 9 11 13 12 11 12 12 12 13 12 11 9 6 6 7 6 5 6 5 8 7 6 7 8 8 9 11 12 11 11 11 9 7 6 5 7 10 11 10 6 7
10 8 9 11 13 11 12 14 14 13 15 13 8 6 8 6 6 5 5 6 8 8 8 7 8 9 10 11 12 12 12 11 10 8 7 7 6 7 9 11 14 8 6
9 8 8 11 12 13 12 13 12 12 11 12 10 11 11 9 9 8 7 8 8 8 8 9 9 11 10 11 11 12 12 12 8 8 7 7 8 10 10 10 12 12 13
12 8 7 8 10 12 16 13 11 13 12 14 13 13 13 12 11 11 11 10 9 9 9 10 9 10 11 11 11 12 12 10 8 7 7 7 8 8 9 9 9 10 10
7 8 8 8 9 9 17 13 14 13 12 13 14 14 13 13 12 12 11 11 12 12 11 11 10 11 11 11 11 11 11 11 8 5 6 5 8 8 7 7 7 8 8
6 8 9 9 8 8 8 10 11 12 13 13 13 13 11 11 11 10 9 11 12 12 11 11 11 11 11 11 11 10 10 10 7 5 4 5 8 7 8 8 8 8 8
7 9 9 9 8 8 8 7 10 11 12 12 11 12 10 5 7 7 6 10 12 12 11 10 11 11 11 11 11 10 8 4 5 4 4 9 8 8 7 8 7 8 8
13 13 10 10 10 8 5 7 7 7 7 7 8 9 7 8 6 6 5 9 11 11 11 10 10 10 7 4 4 6 4 5 4 3 4 8 8 6 6 6 7 7 7
14 9 14 12 10 10 8 6 4 4 5 6 9 9 8 6 5 4 3 4 4 7 4 6 5 3 5 3 4 4 4 4 3 3 5 8 7 6 6 7 8 8 8
11 14 12 13 12 11 7 7 7 7 6 6 8 10 8 5 6 6 5 6 5 4 5 4 3 4 5 5 4 4 4 4 2 2 4 6 6 6 6 7 7 8 8
14 14 15 15 15 13 12 8 8 9 8 9 9 9 8 8 8 7 6 5 5 5 5 4 4 4 4 4 4 4 4 4 3 2 2 5 7 7 8 8 7 8 9
15 17 15 18 17 15 15 13 11 9 9 9 9 10 11 8 8 8 7 7 6 6 5 5 4 4 3 4 4 4 4 3 4 4 3 4 9 8 8 10 9 9 8
17 14 18 18 17 18 18 14 12 11 10 10 9 12 13 11 11 10 8 7 7 6 7 5 5 4 4 3 4 4 3 4 4 6 5 4 5 12 13 12 10 11 11
11 16 14 15 18 19 18 14 12 11 11 10 10 10 13 12 12 11 8 8 8 7 7 6 5 4 3 3 3 3 3 4 6 5 5 5 6 5 10 13 13 12 10
14 14 16 17 20 20 17 13 13 13 12 10 9 10 13 13 12 10 8 8 10 7 7 7 4 3 4 3 4 3 4 5 4 5 7 7 7 6 5 12 13 13 11
12 13 13 13 16 16 11 10 8 8 10 9 11 11 15 12 13 11 8 9 9 8 7 6 5 3 2 4 5 5 5 4 3 5 5 5 5 6 6 6 5 7 10
7 9 14 15 15 14 12 12 9 14 12 10 11 14 16 14 14 13 9 10 9 9 10 10 5 5 3 3 5 4 4 4 5 4 3 5 7 7 7 6 5 4 6
7 9 10 14 15 16 13 12 5 10 9 9 9 11 14 14 15 13 12 11 12 9 10 10 7 4 2 5 3 2 4 2 1 2 3 3 5 4 6 7 7 7 6
9 8 11 13 14 14 13 10 4 6 3 7 8 9 12 15 15 16 15 12 12 10 10 11 10 9 5 3 4 2 4 3 3 2 4 1 3 3 4 5 6 6 6
10 6 6 8 12 12 13 11 17 11 10 8 11 9 11 15 15 15 15 14 14 10 11 11 9 6 5 6 3 1 3 2 4 4 2 2 1 2 5 4 4 5 7
11 9 5 3 6 8 12 13 12 11 8 5 7 13 12 11 12 14 15 14 13 10 11 12 11 9 5 5 4 4 2 2 2 2 3 4 2 2 3 3 4 5 6
12 10 8 4 2 1 6 6 11 12 4 5 9 11 11 9 9 11 12 13 13 13 13 12 12 12 10 5 5 5 5 5 4 4 2 3 2 2 1 3 4 5 4
Wind_Direction
217 182 173 172 172 171 169 170 167 153 135 138 128 117 117 114 114 104 85 82 96 101 93 80 70 77 65 68 64 61 57 52 43 37 41 43 34 79 73 63 53 53 49
152 177 176 173 174 174 175 173 166 162 152 140 132 122 113 114 110 96 75 98 101 92 84 76 63 65 65 60 68 61 52 48 44 40 40 41 34 56 65 59 52 52 45
158 170 181 176 175 179 178 173 172 175 177 165 156 143 128 117 108 97 102 92 99 105 87 79 67 74 76 80 72 64 55 53 53 49 37 43 46 33 62 72 62 58 48
165 166 167 170 178 181 180 172 176 189 185 174 161 149 132 132 119 137 160 122 100 81 76 94 95 85 82 78 74 73 67 61 58 56 54 37 31 29 42 47 52 53 52
172 166 166 161 165 173 182 180 188 194 175 164 143 135 123 166 159 167 152 155 133 108 120 113 92 86 82 72 66 60 61 64 63 62 50 40 37 32 52 54 39 69 56
168 166 174 171 168 166 178 177 185 189 172 151 144 151 182 182 173 164 150 137 128 125 120 103 98 89 80 70 68 66 62 56 56 53 51 31 29 49 47 54 45 54 62
173 170 176 180 180 176 175 177 171 173 172 142 170 195 188 181 171 161 157 144 135 123 115 108 103 93 85 78 71 66 61 60 58 52 38 26 35 47 50 51 53 52 57
172 174 183 190 189 195 195 189 184 182 177 181 184 191 184 174 170 167 161 153 148 137 126 120 114 103 93 87 78 70 64 58 57 51 44 29 21 45 46 44 49 47 47
177 179 186 192 193 204 201 203 195 189 190 188 197 185 174 175 175 172 168 160 153 147 141 134 123 113 103 95 90 82 74 65 68 51 38 36 20 35 39 36 41 47 46
193 196 196 198 193 183 189 204 187 186 184 178 175 169 161 169 174 168 165 166 157 148 142 134 128 114 105 99 90 83 80 75 70 62 43 33 29 37 39 39 39 43 47
219 214 203 198 196 184 185 189 180 177 169 167 160 150 145 149 149 156 169 171 158 149 142 137 123 111 98 88 80 69 65 56 58 47 30 15 26 37 39 41 41 40 42
216 210 205 202 196 186 180 187 178 174 169 162 155 149 148 150 155 162 197 163 153 149 143 132 116 103 96 92 77 66 63 59 56 46 33 12 16 29 39 45 45 44 50
214 204 202 199 196 190 187 181 181 176 167 163 161 155 155 155 165 164 150 120 115 104 108 111 115 104 99 95 82 74 75 65 46 35 28 21 22 39 51 59 65 56 49
203 212 201 196 195 199 188 189 183 179 175 172 172 163 161 164 173 169 165 151 146 145 142 143 131 122 111 101 98 93 80 67 48 40 34 27 38 51 62 67 65 67 63
221 211 204 193 199 194 193 191 189 190 184 178 172 174 167 171 178 170 172 165 164 155 158 152 146 142 127 111 93 94 84 77 69 73 73 37 61 61 72 77 73 69 66
220 215 201 202 201 191 197 194 193 191 185 180 179 181 177 174 176 180 177 176 173 171 161 162 160 146 141 144 122 105 90 71 74 77 78 70 69 73 81 78 76 77 80
220 214 205 200 196 199 200 194 193 191 183 189 187 183 182 180 179 177 179 180 177 168 152 148 149 152 165 148 113 98 97 94 100 80 82 87 81 61 72 74 76 74 70
217 209 206 200 198 199 202 197 195 191 188 191 187 185 185 185 182 178 178 181 170 165 166 164 159 147 154 153 124 93 88 102 101 78 78 83 80 76 61 70 62 60 63
215 209 205 199 200 199 201 197 199 193 193 192 185 185 185 185 183 181 181 174 170 167 169 164 157 165 174 155 127 101 100 110 110 114 101 90 72 58 64 64 68 65 62
217 214 206 200 203 195 188 189 189 191 200 191 190 189 182 186 181 180 177 169 168 166 166 170 161 165 155 140 109 86 89 92 95 118 106 99 84 86 89 79 73 68 76
223 203 199 190 193 179 184 179 190 202 196 195 196 192 187 185 183 182 177 168 172 177 175 172 157 164 151 165 132 92 79 70 94 111 80 65 53 63 52 56 59 67 63
254 214 200 201 193 192 188 192 192 190 207 205 196 193 192 185 181 181 176 179 179 172 173 175 169 147 132 186 147 122 148 170 162 147 132 102 70 67 49 56 64 69 73
268 243 209 202 197 200 192 170 113 100 101 178 191 189 194 183 180 182 182 178 179 182 183 182 180 169 157 182 224 156 141 202 148 167 209 159 57 72 67 74 73 72 78
294 285 225 216 183 191 183 193 194 193 181 198 195 196 193 192 186 184 181 178 178 181 183 186 182 182 150 162 157 134 61 101 172 171 195 197 259 55 45 65 74 80 94
338 332 308 182 183 191 190 192 201 221 207 157 163 176 186 190 193 184 180 178 180 181 184 181 180 193 192 163 155 156 132 82 90 138 161 160 149 158 63 89 115 117 107
359 3 5 48 42 123 181 212 221 221 217 177 167 176 177 175 180 192 189 184 185 188 185 183 182 189 191 187 177 169 162 163 179 162 169 152 149 135 68 120 127 128 110